Rome Ciampino, Italy

7:04 AM CEST on July 28, 2017 (GMT +0200)
Ciampino

Weather History for LIRA - May, 2013

Change the Weather History Date:

Sunday, May 5, 2013

  Actual Average Record
Temperature  
Mean Temperature 65 °F -  
Max Temperature 71 °F 74 °F 87 °F (2015)
Min Temperature 57 °F 53 °F 45 °F (2014)
Growing Degree Days 15 (Base 50)    
Moisture  
Dew Point 56 °F    
Average Humidity 79    
Maximum Humidity 94    
Minimum Humidity 57    
Precipitation  
Precipitation 0.00 in 0.06 in - ()
Sea Level Pressure  
Sea Level Pressure 29.96 in    
Wind  
Wind Speed 3 mph ()    
Max Wind Speed 10 mph    
Max Gust Speed -    
Visibility 5.9 miles    
Events Rain    
Averages and records for this station are not official NWS values.
T = Trace of Precipitation, MM = Missing Value Source: Averaged Metar Reports

Daily Weather History Graph

Daily Weather History Graph

Search for Another Location

Airport or City:

Trip Planner

Search our weather history database for the weather conditions in past years. The results will help you decide how hot, cold, wet, or windy it might be!

Date:

Astronomy

May. 05, 2013 Rise Set
Actual Time 6:01 AM CEST 8:12 PM CEST
Civil Twilight 5:30 AM CEST 8:43 PM CEST
Nautical Twilight 4:52 AM CEST 9:21 PM CEST
Astronomical Twilight 4:11 AM CEST 10:03 PM CEST
Moon 3:26 AM CEST (5/5) 3:51 PM CEST (5/5)
Length of Visible Light 15h 12m
Length of Day
14h 11m
Waning Crescent, 20% of the Moon is Illuminated
May 5
Waning Crescent
May 10
New
May 18
First Quarter
May 25
Full
May 31
Last Quarter

Hourly Weather History & Observations

Time (CEST) Temp. Dew Point Humidity Pressure Visibility Wind Dir Wind Speed Gust Speed Precip Events Conditions
12:15 AM 64.4 °F 50.0 °F 59% 29.98 in 6.2 mi NE 2.3 mph - N/A   Scattered Clouds
12:45 AM 64.4 °F 50.0 °F 59% 29.98 in 6.2 mi NE 1.2 mph - N/A Rain Light Rain
1:15 AM 64.4 °F 57.2 °F 77% 29.95 in 6.2 mi South 2.3 mph - N/A Rain Light Rain
1:45 AM 62.6 °F 55.4 °F 77% 29.95 in 6.2 mi South 4.6 mph - N/A   Scattered Clouds
2:15 AM 60.8 °F 53.6 °F 77% 29.95 in 6.2 mi SSW 5.8 mph - N/A   Scattered Clouds
2:45 AM 60.8 °F 55.4 °F 82% 29.95 in 6.2 mi SSE 4.6 mph - N/A   Scattered Clouds
3:15 AM 60.8 °F 55.4 °F 82% 29.95 in 6.2 mi ENE 4.6 mph - N/A   Scattered Clouds
3:45 AM 60.8 °F 55.4 °F 82% 29.95 in 6.2 mi ENE 3.5 mph - N/A Rain Light Rain
4:15 AM 60.8 °F 55.4 °F 82% 29.95 in 6.2 mi NE 3.5 mph - N/A Rain Light Rain
4:45 AM 60.8 °F 55.4 °F 82% 29.95 in 6.2 mi North 3.5 mph - N/A Rain Light Rain
5:15 AM 60.8 °F 57.2 °F 88% 29.95 in 6.2 mi NNE 5.8 mph - N/A Rain Light Rain
5:45 AM 60.8 °F 57.2 °F 88% 29.95 in 6.2 mi North 5.8 mph - N/A Rain Light Rain
6:15 AM 60.8 °F 57.2 °F 88% 29.95 in 6.2 mi NE 3.5 mph - N/A   Mostly Cloudy
6:45 AM 60.8 °F 57.2 °F 88% 29.95 in 6.2 mi Calm Calm - N/A   Mostly Cloudy
7:15 AM 62.6 °F 59.0 °F 88% 29.95 in 6.2 mi WNW 1.2 mph - N/A   Mostly Cloudy
7:45 AM 62.6 °F 59.0 °F 88% 29.95 in 6.2 mi NNW 3.5 mph - N/A   Mostly Cloudy
8:15 AM 62.6 °F 59.0 °F 88% 29.98 in 6.2 mi North 4.6 mph - N/A Rain Light Rain
8:45 AM 62.6 °F 59.0 °F 88% 29.98 in 6.2 mi NNW 1.2 mph - N/A Rain Light Rain
9:15 AM 62.6 °F 59.0 °F 88% 29.98 in 6.2 mi NNE 2.3 mph - N/A Rain Light Rain
9:45 AM 62.6 °F 59.0 °F 88% 29.98 in 5.0 mi NE 6.9 mph - N/A Rain Light Rain
10:15 AM 60.8 °F 59.0 °F 94% 29.98 in 5.0 mi NE 6.9 mph - N/A Rain Light Rain
10:45 AM 60.8 °F 59.0 °F 94% 30.01 in 5.0 mi North 3.5 mph - N/A Rain Light Rain
11:15 AM 60.8 °F 57.2 °F 88% 30.01 in 5.0 mi WNW 4.6 mph - N/A Rain Light Rain
11:45 AM 60.8 °F 57.2 °F 88% 30.01 in 3.1 mi North 2.3 mph - N/A Rain Light Rain
12:15 PM 60.8 °F 57.2 °F 88% 30.01 in 5.0 mi North 3.5 mph - N/A Rain Light Rain
12:45 PM 60.8 °F 57.2 °F 88% 30.01 in 5.0 mi North 3.5 mph - N/A Rain Light Rain
1:15 PM 62.6 °F 59.0 °F 88% 30.01 in 5.6 mi NE 5.8 mph - N/A Rain Light Rain
1:45 PM 62.6 °F 59.0 °F 88% 30.01 in 5.6 mi ENE 9.2 mph - N/A Rain Light Rain
2:15 PM 64.4 °F 59.0 °F 83% 29.98 in 6.2 mi ENE 10.4 mph - N/A Rain Light Rain
2:45 PM 66.2 °F 57.2 °F 73% 29.98 in 6.2 mi NNE 6.9 mph - N/A   Scattered Clouds
3:15 PM 68.0 °F 57.2 °F 68% 29.95 in 6.2 mi NW 5.8 mph - N/A   Scattered Clouds
3:45 PM 68.0 °F 55.4 °F 64% 29.95 in 6.2 mi North 5.8 mph - N/A   Scattered Clouds
4:15 PM 68.0 °F 55.4 °F 64% 29.95 in 6.2 mi NNW 4.6 mph - N/A   Scattered Clouds
4:45 PM 71.6 °F 57.2 °F 60% 29.95 in 6.2 mi NNW 6.9 mph - N/A   Scattered Clouds
5:15 PM 71.6 °F 57.2 °F 60% 29.95 in 6.2 mi NNW 4.6 mph - N/A   Partly Cloudy
5:45 PM 71.6 °F 55.4 °F 57% 29.95 in 6.2 mi NNW 3.5 mph - N/A   Partly Cloudy
6:15 PM 71.6 °F 55.4 °F 57% 29.95 in 6.2 mi West 4.6 mph - N/A   Partly Cloudy
6:45 PM 68.0 °F 57.2 °F 68% 29.95 in 6.2 mi West 6.9 mph - N/A   Partly Cloudy
7:15 PM 66.2 °F 57.2 °F 73% 29.95 in 6.2 mi WNW 6.9 mph - N/A   Partly Cloudy
7:45 PM 64.4 °F 57.2 °F 77% 29.95 in 6.2 mi West 3.5 mph - N/A   Partly Cloudy
8:15 PM 62.6 °F 55.4 °F 77% 29.95 in 6.2 mi WNW 3.5 mph - N/A   Partly Cloudy
8:45 PM 60.8 °F 53.6 °F 77% 29.95 in 6.2 mi WNW 3.5 mph - N/A   Partly Cloudy
9:15 PM 60.8 °F 53.6 °F 77% 29.95 in 6.2 mi Calm Calm - N/A   Partly Cloudy
9:45 PM 60.8 °F 53.6 °F 77% 29.95 in - ENE 2.3 mph - N/A   Clear
10:15 PM 60.8 °F 55.4 °F 82% 29.95 in - Calm Calm - N/A   Clear
10:45 PM 59.0 °F 55.4 °F 88% 29.95 in - Calm Calm - N/A   Clear
11:15 PM 59.0 °F 55.4 °F 88% 29.95 in - WNW 1.2 mph - N/A   Clear
11:45 PM 57.2 °F 53.6 °F 88% 29.95 in - West 2.3 mph - N/A   Clear